TimeEST,TemperatureF,Dew PointF,Humidity,Sea Level PressureIn,VisibilityMPH,Wind Direction,Wind SpeedMPH,Gust SpeedMPH,PrecipitationIn,Events,Conditions,WindDirDegrees,DateUTC
12:53 AM,30.9,26.1,82,30.53,7.0,Calm,Calm,-,N/A,,Clear,0,2012-11-17 05:53:00
1:53 AM,28.9,25.0,85,30.53,5.0,Calm,Calm,-,N/A,,Clear,0,2012-11-17 06:53:00
2:53 AM,28.9,25.0,85,30.54,6.0,Calm,Calm,-,N/A,,Clear,0,2012-11-17 07:53:00
3:53 AM,28.9,25.0,85,30.54,4.0,Calm,Calm,-,N/A,,Clear,0,2012-11-17 08:53:00
4:53 AM,28.0,25.0,88,30.56,6.0,Calm,Calm,-,N/A,,Clear,0,2012-11-17 09:53:00
5:53 AM,25.0,21.9,88,30.58,5.0,SSE,4.6,-,N/A,,Clear,150,2012-11-17 10:53:00
6:53 AM,26.1,23.0,88,30.58,5.0,Calm,Calm,-,N/A,,Clear,0,2012-11-17 11:53:00
7:53 AM,28.0,25.0,88,30.59,4.0,Calm,Calm,-,N/A,,Clear,0,2012-11-17 12:53:00
8:53 AM,30.9,28.0,89,30.61,4.0,Calm,Calm,-,N/A,,Clear,0,2012-11-17 13:53:00
9:53 AM,39.9,30.0,68,30.61,7.0,Calm,Calm,-,N/A,,Clear,0,2012-11-17 14:53:00
10:53 AM,46.0,30.9,56,30.61,10.0,SSE,3.5,-,N/A,,Clear,150,2012-11-17 15:53:00
11:53 AM,50.0,28.0,43,30.59,10.0,South,10.4,-,N/A,,Clear,170,2012-11-17 16:53:00
12:53 PM,51.1,28.9,43,30.57,10.0,South,8.1,-,N/A,,Clear,180,2012-11-17 17:53:00
1:53 PM,52.0,28.9,41,30.56,10.0,SSW,6.9,-,N/A,,Clear,210,2012-11-17 18:53:00
2:53 PM,53.1,28.0,38,30.55,10.0,SSE,5.8,-,N/A,,Clear,150,2012-11-17 19:53:00
3:53 PM,53.1,28.0,38,30.54,10.0,SSE,5.8,-,N/A,,Clear,160,2012-11-17 20:53:00
4:53 PM,52.0,27.0,38,30.54,10.0,SE,4.6,-,N/A,,Clear,140,2012-11-17 21:53:00
5:53 PM,48.9,27.0,43,30.55,10.0,ESE,3.5,-,N/A,,Clear,120,2012-11-17 22:53:00
6:53 PM,46.0,28.0,50,30.54,10.0,SE,4.6,-,N/A,,Clear,130,2012-11-17 23:53:00
7:53 PM,44.1,28.0,53,30.55,10.0,ESE,4.6,-,N/A,,Clear,120,2012-11-18 00:53:00
8:53 PM,43.0,28.0,56,30.55,10.0,SE,4.6,-,N/A,,Clear,130,2012-11-18 01:53:00
9:53 PM,42.1,30.0,62,30.54,10.0,ESE,5.8,-,N/A,,Clear,120,2012-11-18 02:53:00
10:53 PM,39.9,32.0,73,30.54,9.0,SE,4.6,-,N/A,,Clear,130,2012-11-18 03:53:00
11:53 PM,39.0,30.9,73,30.53,9.0,SE,4.6,-,N/A,,Clear,130,2012-11-18 04:53:00